EW6171 Weather Reports


Display with metric or nautical units.
time (UTC)temp
F
wind
direction
speed
MPH
gust
MPH
rain 1hr
in
rain 24hr
in
rain mn
in
humidity
%
barometer
mb
20260505050546 0 10 0.0 4.0 0.00 0.00 0.00 1007.9
20260505050317 0 213 0.0 4.0 0.00 0.00 0.00 1007.9
20260505041418 0 10 8.0 11.0 0.00 0.00 0.00 1008.0
20260505040906 0 194 8.0 11.0 0.00 0.00 0.00 1008.0
20260505040355 0 10 7.0 11.0 0.00 0.00 0.00 1008.0
20260505035845 0 10 6.0 11.0 0.00 0.00 0.00 1008.1
20260505035336 0 10 6.0 10.0 0.00 0.00 0.00 1008.1
20260505034825 0 10 6.0 10.0 0.00 0.00 0.00 1008.1
20260505034315 0 10 6.0 10.0 0.00 0.00 0.00 1008.2
20260505033805 0 10 6.0 10.0 0.00 0.00 0.00 1008.2
20260505033300 0 10 6.0 10.0 0.00 0.00 0.00 1008.2
20260505032749 0 10 7.0 10.0 0.00 0.00 0.00 1008.0
20260505032240 0 10 6.0 10.0 0.00 0.00 0.00 1008.2
20260505031727 0 10 6.0 10.0 0.00 0.00 0.00 1008.1
20260505031217 0 10 7.0 10.0 0.00 0.00 0.00 1007.9
20260505030707 0 10 7.0 10.0 0.00 0.00 0.00 1008.0
20260505030158 0 10 6.0 10.0 0.00 0.00 0.00 1008.0
20260505025647 0 10 6.0 10.0 0.00 0.00 0.00 1008.0
20260505025136 0 10 7.0 11.0 0.00 0.00 0.00 1008.0
20260505024626 0 10 7.0 11.0 0.00 0.00 0.00 1008.2
20260505024107 0 10 5.0 9.0 0.00 0.00 0.00 1008.3
20260505023549 0 10 5.0 9.0 0.00 0.00 0.00 1008.1
20260505023040 0 10 6.0 10.0 0.00 0.00 0.00 1008.1
20260505022529 0 10 6.0 10.0 0.00 0.00 0.00 1008.1
20260505022019 0 10 5.0 10.0 0.00 0.00 0.00 1008.1
20260505021509 0 10 5.0 9.0 0.00 0.00 0.00 1008.2
20260505020957 0 10 5.0 9.0 0.00 0.00 0.00 1008.0
20260505020439 0 10 5.0 9.0 0.00 0.00 0.00 1008.0
20260505015930 0 10 6.0 9.0 0.00 0.00 0.00 1007.9
20260505015420 0 10 6.0 10.0 0.00 0.00 0.00 1007.9
20260505015139 0 10 4.0 10.0 0.00 0.00 0.00 1007.8
20260505014358 0 10 3.0 9.0 0.00 0.00 0.00 1007.8
20260505013852 0 10 5.0 10.0 0.00 0.00 0.00 1007.7
20260505013341 0 10 5.0 10.0 0.00 0.00 0.00 1007.7
20260505012842 0 10 5.0 10.0 0.00 0.00 0.00 1007.7
20260505012340 0 10 5.0 10.0 0.00 0.00 0.00 1007.7
20260505011841 0 10 7.0 11.0 0.00 0.00 0.00 1007.8
20260505011341 0 10 9.0 13.0 0.00 0.00 0.00 1007.7
20260505010832 0 10 9.0 13.0 0.00 0.00 0.00 1007.6
20260505010322 0 10 8.0 12.0 0.00 0.00 0.00 1007.5
20260505010041 0 10 8.0 13.0 0.00 0.00 0.00 1007.5
20260505005258 0 10 10.0 13.0 0.00 0.00 0.00 1007.6
20260505004749 0 10 11.0 15.0 0.00 0.00 0.00 1007.6
20260505004237 0 10 11.0 15.0 0.00 0.00 0.00 1007.7
20260505003727 0 10 10.0 15.0 0.00 0.00 0.00 1007.7
20260505003217 0 10 10.0 15.0 0.00 0.00 0.00 1007.7
20260505002157 0 10 10.0 14.0 0.00 0.00 0.00 1007.8
20260505001919 0 169 10.0 14.0 0.00 0.00 0.00 1007.9
20260505001137 0 10 10.0 14.0 0.00 0.00 0.00 1008.0
20260505000627 0 10 10.0 14.0 0.00 0.00 0.00 1008.0
20260504235607 0 10 11.0 15.0 0.00 0.00 0.00 1008.1
20260504235057 0 10 11.0 15.0 0.00 0.00 0.00 1008.2
20260504234544 0 10 11.0 15.0 0.00 0.00 0.00 1008.3
20260504234033 0 10 11.0 15.0 0.00 0.00 0.00 1008.3
20260504233753 0 10 11.0 16.0 0.00 0.00 0.00 1008.2
20260504233013 0 144 12.0 16.0 0.00 0.00 0.00 1008.3
20260504232724 0 10 12.0 15.0 0.00 0.00 0.00 1008.3
20260504231943 0 10 11.0 14.0 0.00 0.00 0.00 1008.4
20260504231433 0 160 11.0 16.0 0.00 0.00 0.00 1008.4
20260504230925 0 10 12.0 16.0 0.00 0.00 0.00 1008.6
20260504230647 0 10 11.0 16.0 0.00 0.00 0.00 1008.5
20260504230140 0 10 11.0 16.0 0.00 0.00 0.00 1008.5
20260504225630 0 10 12.0 16.0 0.00 0.00 0.00 1008.5
20260504225121 0 10 12.0 16.0 0.00 0.00 0.00 1008.4
20260504224602 0 10 11.0 16.0 0.00 0.00 0.00 1008.5
20260504223819 0 171 11.0 16.0 0.00 0.00 0.00 1008.4
20260504223546 0 158 12.0 17.0 0.00 0.00 0.00 1008.4
20260504222803 0 10 12.0 17.0 0.00 0.00 0.00 1008.5
20260504222255 0 138 13.0 15.0 0.00 0.00 0.00 1008.5
20260504221747 0 150 13.0 15.0 0.00 0.00 0.00 1008.6
20260504221243 0 146 13.0 16.0 0.00 0.00 0.00 1008.7
20260504220729 0 10 12.0 16.0 0.00 0.00 0.00 1008.6
20260504220221 0 10 12.0 15.0 0.00 0.00 0.00 1008.6
20260504215717 0 10 12.0 15.0 0.00 0.00 0.00 1008.8
20260504215213 0 10 13.0 15.0 0.00 0.00 0.00 1008.8
20260504214709 0 140 12.0 15.0 0.00 0.00 0.00 1008.9
20260504214203 0 10 11.0 16.0 0.00 0.00 0.00 1009.0
20260504213659 0 10 11.0 14.0 0.00 0.00 0.00 1009.1
20260504213152 0 163 12.0 14.0 0.00 0.00 0.00 1009.1
20260504212651 0 10 12.0 14.0 0.00 0.00 0.00 1009.2
20260504212148 0 10 11.0 14.0 0.00 0.00 0.00 1009.3
20260504211645 0 10 12.0 14.0 0.00 0.00 0.00 1009.5
20260504211414 0 10 12.0 15.0 0.00 0.00 0.00 1009.6
20260504210907 0 10 12.0 15.0 0.00 0.00 0.00 1009.6
20260504210133 0 10 11.0 15.0 0.00 0.00 0.00 1009.7
20260504205628 0 10 12.0 15.0 0.00 0.00 0.00 1009.7
20260504205353 0 10 12.0 15.0 0.00 0.00 0.00 1009.8
20260504204615 0 10 12.0 15.0 0.00 0.00 0.00 1009.8
20260504204112 0 10 12.0 15.0 0.00 0.00 0.00 1009.9
20260504203557 0 10 12.0 15.0 0.00 0.00 0.00 1009.9
20260504203054 0 10 11.0 15.0 0.00 0.00 0.00 1010.0
20260504202546 0 10 12.0 15.0 0.00 0.00 0.00 1010.2
20260504202040 0 10 12.0 15.0 0.00 0.00 0.00 1010.2
20260504201032 0 10 12.0 15.0 0.00 0.00 0.00 1010.1
20260504200754 0 152 12.0 15.0 0.00 0.00 0.00 1010.1
20260504200016 0 10 12.0 14.0 0.00 0.00 0.00 1010.2
20260504195514 0 10 12.0 16.0 0.00 0.00 0.00 1010.4
20260504195008 0 160 12.0 16.0 0.00 0.00 0.00 1010.4
20260504194502 0 10 11.0 15.0 0.00 0.00 0.00 1010.5
20260504193958 0 10 11.0 15.0 0.00 0.00 0.00 1010.6
20260504193450 0 145 11.0 14.0 0.00 0.00 0.00 1010.7
20260504192948 0 10 11.0 15.0 0.00 0.00 0.00 1010.9
20260504192438 0 10 11.0 15.0 0.00 0.00 0.00 1010.9
20260504191930 0 10 11.0 14.0 0.00 0.00 0.00 1010.8
20260504191422 0 10 11.0 16.0 0.00 0.00 0.00 1010.7
20260504190408 0 10 12.0 16.0 0.00 0.00 0.00 1010.7
20260504185901 0 142 12.0 16.0 0.00 0.00 0.00 1010.6
20260504185350 0 10 12.0 15.0 0.00 0.00 0.00 1011.0
20260504184840 0 10 12.0 15.0 0.00 0.00 0.00 1011.1
20260504184329 0 10 12.0 16.0 0.00 0.00 0.00 1011.1
20260504183818 0 10 11.0 16.0 0.00 0.00 0.00 1010.9
20260504183308 0 145 11.0 14.0 0.00 0.00 0.00 1011.0
20260504182758 0 10 12.0 14.0 0.00 0.00 0.00 1011.0
20260504182246 0 10 11.0 15.0 0.00 0.00 0.00 1010.9
20260504181737 0 153 11.0 14.0 0.00 0.00 0.00 1011.0
20260504181227 0 10 11.0 14.0 0.00 0.00 0.00 1011.3
20260504180716 0 10 11.0 14.0 0.00 0.00 0.00 1011.2
20260504180157 0 10 11.0 15.0 0.00 0.00 0.00 1011.4
20260504175646 0 10 11.0 15.0 0.00 0.00 0.00 1011.5
20260504175136 0 154 11.0 14.0 0.00 0.00 0.00 1011.5
20260504174626 0 157 11.0 14.0 0.00 0.00 0.00 1011.5
20260504174349 0 10 11.0 14.0 0.00 0.00 0.00 1011.6
20260504173558 0 10 12.0 16.0 0.00 0.00 0.00 1011.7
20260504173050 0 10 12.0 16.0 0.00 0.00 0.00 1011.7
20260504172538 0 10 11.0 15.0 0.00 0.00 0.00 1011.6
20260504172026 0 167 10.0 15.0 0.00 0.00 0.00 1011.9
20260504171520 0 212 10.0 13.0 0.00 0.00 0.00 1012.0
20260504171010 0 10 11.0 16.0 0.00 0.00 0.00 1011.9
20260504170453 0 10 10.0 16.0 0.00 0.00 0.00 1011.8
20260504151109 0 10 10.0 13.0 0.00 0.00 0.00 1012.4
20260504150600 0 10 10.0 13.0 0.00 0.00 0.00 1012.4
20260504141135 0 203 7.0 11.0 0.00 0.00 0.00 1012.7
20260504140355 0 10 8.0 12.0 0.00 0.00 0.00 1012.8
20260504130146 0 219 4.0 7.0 0.00 0.00 0.00 1012.3
20260504110351 0 10 0.0 2.0 0.00 0.00 0.00 1012.2
20260504100244 0 109 0.0 1.0 0.00 0.00 0.00 1012.5
20260504090118 0 118 0.0 2.0 0.00 0.00 0.00 1012.9
20260504081459 0 127 0.0 0.0 0.00 0.00 0.00 1013.1
20260504080950 0 127 0.0 0.0 0.00 0.00 0.00 1013.1
20260504080439 0 154 0.0 0.0 0.00 0.00 0.00 1013.3
20260504080201 0 110 0.0 0.0 0.00 0.00 0.00 1013.5
20260504070247 0 140 0.0 0.0 0.00 0.00 0.00 1014.5